Year,Month,Day,Hour,Minute,Value (Times are PST for windspeed in km/hr)
2008,10,07,00,00,13.60
2008,10,07,00,01,8.60
2008,10,07,00,02,12.90
2008,10,07,00,03,16.70
2008,10,07,00,04,24.10
2008,10,07,00,05,13.70
2008,10,07,00,06,20.60
2008,10,07,00,07,26.30
2008,10,07,00,08,27.30
2008,10,07,00,09,20.80
2008,10,07,00,10,20.90
2008,10,07,00,11,25.50
2008,10,07,00,12,26.60
2008,10,07,00,13,25.80
2008,10,07,00,14,20.90
2008,10,07,00,15,28.30
2008,10,07,00,16,29.10
2008,10,07,00,17,26.70
2008,10,07,00,18,33.40
2008,10,07,00,19,29.90
2008,10,07,00,20,27.40
2008,10,07,00,21,35.00
2008,10,07,00,22,39.80
2008,10,07,00,23,37.10
2008,10,07,00,24,42.10
2008,10,07,00,25,55.80
2008,10,07,00,26,32.70
2008,10,07,00,27,36.20
2008,10,07,00,28,31.40
2008,10,07,00,29,33.90
2008,10,07,00,30,35.90
2008,10,07,00,31,31.80
2008,10,07,00,32,32.70
2008,10,07,00,33,25.60
2008,10,07,00,34,33.20
2008,10,07,00,35,33.00
2008,10,07,00,36,27.30
2008,10,07,00,37,28.90
2008,10,07,00,38,45.00
2008,10,07,00,39,32.00
2008,10,07,00,40,29.40
2008,10,07,00,41,35.80
2008,10,07,00,42,24.30
2008,10,07,00,43,31.20
2008,10,07,00,44,31.30
2008,10,07,00,45,30.60
2008,10,07,00,46,28.90
2008,10,07,00,47,29.00
2008,10,07,00,48,33.50
2008,10,07,00,49,23.20
2008,10,07,00,50,28.30
2008,10,07,00,51,28.40
2008,10,07,00,52,33.00
2008,10,07,00,53,31.60
2008,10,07,00,54,25.10
2008,10,07,00,55,27.80
2008,10,07,00,56,27.00
2008,10,07,00,57,29.40
2008,10,07,00,58,40.70
2008,10,07,00,59,37.30
2008,10,07,01,00,34.80
2008,10,07,01,01,32.30
2008,10,07,01,02,26.80
2008,10,07,01,03,26.30
2008,10,07,01,04,47.10
2008,10,07,01,05,31.00
2008,10,07,01,06,28.60
2008,10,07,01,07,41.30
2008,10,07,01,08,28.40
2008,10,07,01,09,32.10
2008,10,07,01,10,29.50
2008,10,07,01,11,28.50
2008,10,07,01,12,19.80
2008,10,07,01,13,27.90
2008,10,07,01,14,37.10
2008,10,07,01,15,30.20
2008,10,07,01,16,35.70
2008,10,07,01,17,16.30
2008,10,07,01,18,25.10
2008,10,07,01,19,21.60
2008,10,07,01,20,21.60
2008,10,07,01,21,16.00
2008,10,07,01,22,36.60
2008,10,07,01,23,30.80
2008,10,07,01,24,20.60
2008,10,07,01,25,36.10
2008,10,07,01,26,26.10
2008,10,07,01,27,27.70
2008,10,07,01,28,29.10
2008,10,07,01,29,25.70
2008,10,07,01,30,30.50
2008,10,07,01,31,35.20
2008,10,07,01,32,28.80
2008,10,07,01,33,33.70
2008,10,07,01,34,32.30
2008,10,07,01,35,33.10
2008,10,07,01,36,32.30
2008,10,07,01,37,37.50
2008,10,07,01,38,28.10
2008,10,07,01,39,37.80
2008,10,07,01,40,36.90
2008,10,07,01,41,34.80
2008,10,07,01,42,32.00
2008,10,07,01,43,42.20
2008,10,07,01,44,35.70
2008,10,07,01,45,45.10
2008,10,07,01,46,36.40
2008,10,07,01,47,35.30
2008,10,07,01,48,31.20
2008,10,07,01,49,23.50
2008,10,07,01,50,31.50
2008,10,07,01,51,27.40
2008,10,07,01,52,29.90
2008,10,07,01,53,33.40
2008,10,07,01,54,26.50
2008,10,07,01,55,43.30
2008,10,07,01,56,38.00
2008,10,07,01,57,48.40
2008,10,07,01,58,35.50
2008,10,07,01,59,34.30
2008,10,07,02,00,33.10
2008,10,07,02,01,31.70
2008,10,07,02,02,44.20
2008,10,07,02,03,51.60
2008,10,07,02,04,46.10
2008,10,07,02,05,43.30
2008,10,07,02,06,23.60
2008,10,07,02,07,26.70
2008,10,07,02,08,37.50
2008,10,07,02,09,28.60
2008,10,07,02,10,34.40
2008,10,07,02,11,38.70
2008,10,07,02,12,35.10
2008,10,07,02,13,42.00
2008,10,07,02,14,36.10
2008,10,07,02,15,32.40
2008,10,07,02,16,32.40
2008,10,07,02,17,40.80
2008,10,07,02,18,40.60
2008,10,07,02,19,41.00
2008,10,07,02,20,36.50
2008,10,07,02,21,44.50
2008,10,07,02,22,34.60
2008,10,07,02,23,39.20
2008,10,07,02,24,35.90
2008,10,07,02,25,27.70
2008,10,07,02,26,38.80
2008,10,07,02,27,30.30
2008,10,07,02,28,24.60
2008,10,07,02,29,31.80
2008,10,07,02,30,39.80
2008,10,07,02,31,41.10
2008,10,07,02,32,34.80
2008,10,07,02,33,29.30
2008,10,07,02,34,27.40
2008,10,07,02,35,35.40
2008,10,07,02,36,42.00
2008,10,07,02,37,34.60
2008,10,07,02,38,35.30
2008,10,07,02,39,34.70
2008,10,07,02,40,43.50
2008,10,07,02,41,28.80
2008,10,07,02,42,29.20
2008,10,07,02,43,34.70
2008,10,07,02,44,29.60
2008,10,07,02,45,36.60
2008,10,07,02,46,39.10
2008,10,07,02,47,37.60
2008,10,07,02,48,36.80
2008,10,07,02,49,28.00
2008,10,07,02,50,35.70
2008,10,07,02,51,23.70
2008,10,07,02,52,25.30
2008,10,07,02,53,23.20
2008,10,07,02,54,31.90
2008,10,07,02,55,27.20
2008,10,07,02,56,31.70
2008,10,07,02,57,29.80
2008,10,07,02,58,27.70
2008,10,07,02,59,24.70
2008,10,07,03,00,24.40
2008,10,07,03,01,37.70
2008,10,07,03,02,30.80
2008,10,07,03,03,37.60
2008,10,07,03,04,29.20
2008,10,07,03,05,27.80
2008,10,07,03,06,25.60
2008,10,07,03,07,29.00
2008,10,07,03,08,33.00
2008,10,07,03,09,32.60
2008,10,07,03,10,28.90
2008,10,07,03,11,53.10
2008,10,07,03,12,44.00
2008,10,07,03,13,48.80
2008,10,07,03,14,47.20
2008,10,07,03,15,45.70
2008,10,07,03,16,39.20
2008,10,07,03,17,48.50
2008,10,07,03,18,45.90
2008,10,07,03,19,23.30
2008,10,07,03,20,30.60
2008,10,07,03,21,43.10
2008,10,07,03,22,34.80
2008,10,07,03,23,36.10
2008,10,07,03,24,34.00
2008,10,07,03,25,29.70
2008,10,07,03,26,31.00
2008,10,07,03,27,37.40
2008,10,07,03,28,34.00
2008,10,07,03,29,24.90
2008,10,07,03,30,23.80
2008,10,07,03,31,29.40
2008,10,07,03,32,31.40
2008,10,07,03,33,30.70
2008,10,07,03,34,23.60
2008,10,07,03,35,21.50
2008,10,07,03,36,42.20
2008,10,07,03,37,27.00
2008,10,07,03,38,33.90
2008,10,07,03,39,37.00
2008,10,07,03,40,26.40
2008,10,07,03,41,18.80
2008,10,07,03,42,25.50
2008,10,07,03,43,33.80
2008,10,07,03,44,39.40
2008,10,07,03,45,31.50
2008,10,07,03,46,17.60
2008,10,07,03,47,31.80
2008,10,07,03,48,32.80
2008,10,07,03,49,27.90
2008,10,07,03,50,20.30
2008,10,07,03,51,26.80
2008,10,07,03,52,23.90
2008,10,07,03,53,21.70
2008,10,07,03,54,20.70
2008,10,07,03,55,25.90
2008,10,07,03,56,21.20
2008,10,07,03,57,30.50
2008,10,07,03,58,31.80
2008,10,07,03,59,37.30
2008,10,07,04,00,34.50
2008,10,07,04,01,36.40
2008,10,07,04,02,35.40
2008,10,07,04,03,35.10
2008,10,07,04,04,41.00
2008,10,07,04,05,26.50
2008,10,07,04,06,31.50
2008,10,07,04,07,29.10
2008,10,07,04,08,28.20
2008,10,07,04,09,21.80
2008,10,07,04,10,28.00
2008,10,07,04,11,34.20
2008,10,07,04,12,32.30
2008,10,07,04,13,36.30
2008,10,07,04,14,34.60
2008,10,07,04,15,24.40
2008,10,07,04,16,23.80
2008,10,07,04,17,26.10
2008,10,07,04,18,36.40
2008,10,07,04,19,28.80
2008,10,07,04,20,27.00
2008,10,07,04,21,30.10
2008,10,07,04,22,35.20
2008,10,07,04,23,34.00
2008,10,07,04,24,33.10
2008,10,07,04,25,28.30
2008,10,07,04,26,41.90
2008,10,07,04,27,30.70
2008,10,07,04,28,31.90
2008,10,07,04,29,35.70
2008,10,07,04,30,29.90
2008,10,07,04,31,31.00
2008,10,07,04,32,37.00
2008,10,07,04,33,39.60
2008,10,07,04,34,35.10
2008,10,07,04,35,34.40
2008,10,07,04,36,32.20
2008,10,07,04,37,30.70
2008,10,07,04,38,42.20
2008,10,07,04,39,35.90
2008,10,07,04,40,36.50
2008,10,07,04,41,35.80
2008,10,07,04,42,40.10
2008,10,07,04,43,43.10
2008,10,07,04,44,24.60
2008,10,07,04,45,44.20
2008,10,07,04,46,38.00
2008,10,07,04,47,37.90
2008,10,07,04,48,39.80
2008,10,07,04,49,38.80
2008,10,07,04,50,44.20
2008,10,07,04,51,31.20
2008,10,07,04,52,30.30
2008,10,07,04,53,32.60
2008,10,07,04,54,30.80
2008,10,07,04,55,29.10
2008,10,07,04,56,31.70
2008,10,07,04,57,27.70
2008,10,07,04,58,31.00
2008,10,07,04,59,36.10
2008,10,07,05,00,29.40
2008,10,07,05,01,36.00
2008,10,07,05,02,36.60
2008,10,07,05,03,26.50
2008,10,07,05,04,34.30
2008,10,07,05,05,32.80
2008,10,07,05,06,35.70
2008,10,07,05,07,33.50
2008,10,07,05,08,38.80
2008,10,07,05,09,36.30
2008,10,07,05,10,36.10
2008,10,07,05,11,29.90
2008,10,07,05,12,29.40
2008,10,07,05,13,23.00
2008,10,07,05,14,34.10
2008,10,07,05,15,26.20
2008,10,07,05,16,23.50
2008,10,07,05,17,19.70
2008,10,07,05,18,31.10
2008,10,07,05,19,30.90
2008,10,07,05,20,41.50
2008,10,07,05,21,41.80
2008,10,07,05,22,37.00
2008,10,07,05,23,41.50
2008,10,07,05,24,40.00
2008,10,07,05,25,31.00
2008,10,07,05,26,38.50
2008,10,07,05,27,25.30
2008,10,07,05,28,25.20
2008,10,07,05,29,30.20
2008,10,07,05,30,24.90
2008,10,07,05,31,39.50
2008,10,07,05,32,28.00
2008,10,07,05,33,30.70
2008,10,07,05,34,24.30
2008,10,07,05,35,28.60
2008,10,07,05,36,34.80
2008,10,07,05,37,30.00
2008,10,07,05,38,22.40
2008,10,07,05,39,24.30
2008,10,07,05,40,24.90
2008,10,07,05,41,21.50
2008,10,07,05,42,30.90
2008,10,07,05,43,32.70
2008,10,07,05,44,19.20
2008,10,07,05,45,25.00
2008,10,07,05,46,25.00
2008,10,07,05,47,28.30
2008,10,07,05,48,27.00
2008,10,07,05,49,33.40
2008,10,07,05,50,34.60
2008,10,07,05,51,29.20
2008,10,07,05,52,25.40
2008,10,07,05,53,31.50
2008,10,07,05,54,31.60
2008,10,07,05,55,30.50
2008,10,07,05,56,27.50
2008,10,07,05,57,25.30
2008,10,07,05,58,25.80
2008,10,07,05,59,24.60
2008,10,07,06,00,21.80
2008,10,07,06,01,31.90
2008,10,07,06,02,31.20
2008,10,07,06,03,29.20
2008,10,07,06,04,27.40
2008,10,07,06,05,41.40
2008,10,07,06,06,37.20
2008,10,07,06,07,30.30
2008,10,07,06,08,24.10
2008,10,07,06,09,25.60
2008,10,07,06,10,30.60
2008,10,07,06,11,22.40
2008,10,07,06,12,25.60
2008,10,07,06,13,25.60
2008,10,07,06,14,26.30
2008,10,07,06,15,33.10
2008,10,07,06,16,25.70
2008,10,07,06,17,39.30
2008,10,07,06,18,26.30
2008,10,07,06,19,26.60
2008,10,07,06,20,28.70
2008,10,07,06,21,29.10
2008,10,07,06,22,39.50
2008,10,07,06,23,26.70
2008,10,07,06,24,32.40
2008,10,07,06,25,35.10
2008,10,07,06,26,34.40
2008,10,07,06,27,30.40
2008,10,07,06,28,29.10
2008,10,07,06,29,40.70
2008,10,07,06,30,33.90
2008,10,07,06,31,35.00
2008,10,07,06,32,32.10
2008,10,07,06,33,28.80
2008,10,07,06,34,35.30
2008,10,07,06,35,29.80
2008,10,07,06,36,37.40
2008,10,07,06,37,25.80
2008,10,07,06,38,31.80
2008,10,07,06,39,30.80
2008,10,07,06,40,30.70
2008,10,07,06,41,33.00
2008,10,07,06,42,40.20
2008,10,07,06,43,29.00
2008,10,07,06,44,33.10
2008,10,07,06,45,22.40
2008,10,07,06,46,22.60
2008,10,07,06,47,29.40
2008,10,07,06,48,29.40
2008,10,07,06,49,30.30
2008,10,07,06,50,28.80
2008,10,07,06,51,26.60
2008,10,07,06,52,28.10
2008,10,07,06,53,30.10
2008,10,07,06,54,29.90
2008,10,07,06,55,20.80
2008,10,07,06,56,24.30
2008,10,07,06,57,30.70
2008,10,07,06,58,30.70
2008,10,07,06,59,26.90
2008,10,07,07,00,30.90
2008,10,07,07,01,32.90
2008,10,07,07,02,22.80
2008,10,07,07,03,24.80
2008,10,07,07,04,28.10
2008,10,07,07,05,24.10
2008,10,07,07,06,24.70
2008,10,07,07,07,33.80
2008,10,07,07,08,37.40
2008,10,07,07,09,28.40
2008,10,07,07,10,26.10
2008,10,07,07,11,33.60
2008,10,07,07,12,37.70
2008,10,07,07,13,33.40
2008,10,07,07,14,34.00
2008,10,07,07,15,26.90
2008,10,07,07,16,29.10
2008,10,07,07,17,28.20
2008,10,07,07,18,34.20
2008,10,07,07,19,26.50
2008,10,07,07,20,27.10
2008,10,07,07,21,33.40
2008,10,07,07,22,26.70
2008,10,07,07,23,30.50
2008,10,07,07,24,24.00
2008,10,07,07,25,27.40
2008,10,07,07,26,33.00
2008,10,07,07,27,22.90
2008,10,07,07,28,20.40
2008,10,07,07,29,36.10
2008,10,07,07,30,28.00
2008,10,07,07,31,20.80
2008,10,07,07,32,27.50
2008,10,07,07,33,26.30
2008,10,07,07,34,32.60
2008,10,07,07,35,27.00
2008,10,07,07,36,24.00
2008,10,07,07,37,27.50
2008,10,07,07,38,19.60
2008,10,07,07,39,21.30
2008,10,07,07,40,23.10
2008,10,07,07,41,21.90
2008,10,07,07,42,24.80
2008,10,07,07,43,17.80
2008,10,07,07,44,20.90
2008,10,07,07,45,18.90
2008,10,07,07,46,25.20
2008,10,07,07,47,18.10
2008,10,07,07,48,27.80
2008,10,07,07,49,22.30
2008,10,07,07,50,17.50
2008,10,07,07,51,18.20
2008,10,07,07,52,16.10
2008,10,07,07,53,21.50
2008,10,07,07,54,24.30
2008,10,07,07,55,13.10
2008,10,07,07,56,22.50
2008,10,07,07,57,18.70
2008,10,07,07,58,12.60
2008,10,07,07,59,10.50
2008,10,07,08,00,14.10
2008,10,07,08,01,9.70
2008,10,07,08,02,17.50
2008,10,07,08,03,12.80
2008,10,07,08,04,12.00
2008,10,07,08,05,14.30
2008,10,07,08,06,14.80
2008,10,07,08,07,9.90
2008,10,07,08,08,12.90
2008,10,07,08,09,16.20
2008,10,07,08,10,21.50
2008,10,07,08,11,23.00
2008,10,07,08,12,25.20
2008,10,07,08,13,18.70
2008,10,07,08,14,12.40
2008,10,07,08,15,16.30
2008,10,07,08,16,13.90
2008,10,07,08,17,16.70
2008,10,07,08,18,15.10
2008,10,07,08,19,20.80
2008,10,07,08,20,16.20
2008,10,07,08,21,15.40
2008,10,07,08,22,13.10
2008,10,07,08,23,10.10
2008,10,07,08,24,11.40
2008,10,07,08,25,9.60
2008,10,07,08,26,10.20
2008,10,07,08,27,18.00
2008,10,07,08,28,19.60
2008,10,07,08,29,11.90
2008,10,07,08,30,17.50
2008,10,07,08,31,17.50
2008,10,07,08,32,17.40
2008,10,07,08,33,24.50
2008,10,07,08,34,16.90
2008,10,07,08,35,20.20
2008,10,07,08,36,19.00
2008,10,07,08,37,24.70
2008,10,07,08,38,23.20
2008,10,07,08,39,21.60
2008,10,07,08,40,23.10
2008,10,07,08,41,23.20
2008,10,07,08,42,21.70
2008,10,07,08,43,16.50
2008,10,07,08,44,20.80
2008,10,07,08,45,21.10
2008,10,07,08,46,17.70
2008,10,07,08,47,24.00
2008,10,07,08,48,21.50
2008,10,07,08,49,22.90
2008,10,07,08,50,25.50
2008,10,07,08,51,25.00
2008,10,07,08,52,22.90
2008,10,07,08,53,19.10
2008,10,07,08,54,23.80
2008,10,07,08,55,15.40
2008,10,07,08,56,24.50
2008,10,07,08,57,21.10
2008,10,07,08,58,19.70
2008,10,07,08,59,26.40
2008,10,07,09,00,21.80
2008,10,07,09,01,21.80
2008,10,07,09,02,22.20
2008,10,07,09,03,25.40
2008,10,07,09,04,22.50
2008,10,07,09,05,20.90
2008,10,07,09,06,17.50
2008,10,07,09,07,22.20
2008,10,07,09,08,22.80
2008,10,07,09,09,21.00
2008,10,07,09,10,17.90
2008,10,07,09,11,24.50
2008,10,07,09,12,16.00
2008,10,07,09,13,27.40
2008,10,07,09,14,22.90
2008,10,07,09,15,17.90
2008,10,07,09,16,14.10
2008,10,07,09,17,13.80
2008,10,07,09,18,23.90
2008,10,07,09,19,26.20
2008,10,07,09,20,16.70
2008,10,07,09,21,27.20
2008,10,07,09,22,27.00
2008,10,07,09,23,24.60
2008,10,07,09,24,23.70
2008,10,07,09,25,23.80
2008,10,07,09,26,18.70
2008,10,07,09,27,18.90
2008,10,07,09,28,28.00
2008,10,07,09,29,26.40
2008,10,07,09,30,25.90
2008,10,07,09,31,30.40
2008,10,07,09,32,25.20
2008,10,07,09,33,23.00
2008,10,07,09,34,23.30
2008,10,07,09,35,23.50
2008,10,07,09,36,20.60
2008,10,07,09,37,23.40
2008,10,07,09,38,18.80
2008,10,07,09,39,22.90
2008,10,07,09,40,24.10
2008,10,07,09,41,18.30
2008,10,07,09,42,17.10
2008,10,07,09,43,24.40
2008,10,07,09,44,26.30
2008,10,07,09,45,23.50
2008,10,07,09,46,25.70
2008,10,07,09,47,20.20
2008,10,07,09,48,23.20
2008,10,07,09,49,21.50
2008,10,07,09,50,21.60
2008,10,07,09,51,25.90
2008,10,07,09,52,21.10
2008,10,07,09,53,27.00
2008,10,07,09,54,35.60
2008,10,07,09,55,24.70
2008,10,07,09,56,23.40
2008,10,07,09,57,32.60
2008,10,07,09,58,30.10
2008,10,07,09,59,21.20
2008,10,07,10,00,20.40
2008,10,07,10,01,26.80
2008,10,07,10,02,29.60
2008,10,07,10,03,21.10
2008,10,07,10,04,21.50
2008,10,07,10,05,28.00
2008,10,07,10,06,30.70
2008,10,07,10,07,23.70
2008,10,07,10,08,27.50
2008,10,07,10,09,22.30
2008,10,07,10,10,19.80
2008,10,07,10,11,32.60
2008,10,07,10,12,28.30
2008,10,07,10,13,22.20
2008,10,07,10,14,23.20
2008,10,07,10,15,18.90
2008,10,07,10,16,20.50
2008,10,07,10,17,24.10
2008,10,07,10,18,23.90
2008,10,07,10,19,22.80
2008,10,07,10,20,25.30
2008,10,07,10,21,20.40
2008,10,07,10,22,20.20
2008,10,07,10,23,27.30
2008,10,07,10,24,23.10
2008,10,07,10,25,26.50
2008,10,07,10,26,28.50
2008,10,07,10,27,27.10
2008,10,07,10,28,31.60
2008,10,07,10,29,20.50
2008,10,07,10,30,19.10
2008,10,07,10,31,27.30
2008,10,07,10,32,27.40
2008,10,07,10,33,25.70
2008,10,07,10,34,32.70
2008,10,07,10,35,19.80
2008,10,07,10,36,26.30
2008,10,07,10,37,21.90
2008,10,07,10,38,28.30
2008,10,07,10,39,28.40
2008,10,07,10,40,33.80
2008,10,07,10,41,27.00
2008,10,07,10,42,27.90
2008,10,07,10,43,35.70
2008,10,07,10,44,20.80
2008,10,07,10,45,31.90
2008,10,07,10,46,26.90
2008,10,07,10,47,34.60
2008,10,07,10,48,28.00
2008,10,07,10,49,21.90
2008,10,07,10,50,32.10
2008,10,07,10,51,26.20
2008,10,07,10,52,32.40
2008,10,07,10,53,30.50
2008,10,07,10,54,24.80
2008,10,07,10,55,22.30
2008,10,07,10,56,24.40
2008,10,07,10,57,23.70
2008,10,07,10,58,32.90
2008,10,07,10,59,32.00
2008,10,07,11,00,20.80
2008,10,07,11,01,25.30
2008,10,07,11,02,24.60
2008,10,07,11,03,20.70
2008,10,07,11,04,35.40
2008,10,07,11,05,36.00
2008,10,07,11,06,28.60
2008,10,07,11,07,23.00
2008,10,07,11,08,27.10
2008,10,07,11,09,28.20
2008,10,07,11,10,20.00
2008,10,07,11,11,18.80
2008,10,07,11,12,28.00
2008,10,07,11,13,26.00
2008,10,07,11,14,25.00
2008,10,07,11,15,26.10
2008,10,07,11,16,24.10
2008,10,07,11,17,34.00
2008,10,07,11,18,27.10
2008,10,07,11,19,33.40
2008,10,07,11,20,36.70
2008,10,07,11,21,28.50
2008,10,07,11,22,31.10
2008,10,07,11,23,30.50
2008,10,07,11,24,33.60
2008,10,07,11,25,33.80
2008,10,07,11,26,24.30
2008,10,07,11,27,30.10
2008,10,07,11,28,28.50
2008,10,07,11,29,27.50
2008,10,07,11,30,31.90
2008,10,07,11,31,34.00
2008,10,07,11,32,28.90
2008,10,07,11,33,28.40
2008,10,07,11,34,35.60
2008,10,07,11,35,23.80
2008,10,07,11,36,34.70
2008,10,07,11,37,19.10
2008,10,07,11,38,20.60
2008,10,07,11,39,25.10
2008,10,07,11,40,25.20
2008,10,07,11,41,29.90
2008,10,07,11,42,24.50
2008,10,07,11,43,29.90
2008,10,07,11,44,23.90
2008,10,07,11,45,15.90
2008,10,07,11,46,19.80
2008,10,07,11,47,27.90
2008,10,07,11,48,23.80
2008,10,07,11,49,23.40
2008,10,07,11,50,30.40
2008,10,07,11,51,30.80
2008,10,07,11,52,19.90
2008,10,07,11,53,28.10
2008,10,07,11,54,30.60
2008,10,07,11,55,21.20
2008,10,07,11,56,29.00
2008,10,07,11,57,25.60
2008,10,07,11,58,36.40
2008,10,07,11,59,30.10
2008,10,07,12,00,33.90
2008,10,07,12,01,35.10
2008,10,07,12,02,25.50
2008,10,07,12,03,23.90
2008,10,07,12,04,26.30
2008,10,07,12,05,27.60
2008,10,07,12,06,27.40
2008,10,07,12,07,24.20
2008,10,07,12,08,26.50
2008,10,07,12,09,20.00
2008,10,07,12,10,25.10
2008,10,07,12,11,21.50
2008,10,07,12,12,30.00
2008,10,07,12,13,24.50
2008,10,07,12,14,33.10
2008,10,07,12,15,27.80
2008,10,07,12,16,24.20
2008,10,07,12,17,26.00
2008,10,07,12,18,26.30
2008,10,07,12,19,26.20
2008,10,07,12,20,24.50
2008,10,07,12,21,19.50
2008,10,07,12,22,29.50
2008,10,07,12,23,20.00
2008,10,07,12,24,21.90
2008,10,07,12,25,23.80
2008,10,07,12,26,20.10
2008,10,07,12,27,33.20
2008,10,07,12,28,21.70
2008,10,07,12,29,25.00
2008,10,07,12,30,24.80
2008,10,07,12,31,20.40
2008,10,07,12,32,26.80
2008,10,07,12,33,19.60
2008,10,07,12,34,21.70
2008,10,07,12,35,33.50
2008,10,07,12,36,27.50
2008,10,07,12,37,33.90
2008,10,07,12,38,18.70
2008,10,07,12,39,24.70
2008,10,07,12,40,32.00
2008,10,07,12,41,32.40
2008,10,07,12,42,26.40
2008,10,07,12,43,19.10
2008,10,07,12,44,18.60
2008,10,07,12,45,17.20
2008,10,07,12,46,16.40
2008,10,07,12,47,20.80
2008,10,07,12,48,22.50
2008,10,07,12,49,22.80
2008,10,07,12,50,22.10
2008,10,07,12,51,22.20
2008,10,07,12,52,19.30
2008,10,07,12,53,17.10
2008,10,07,12,54,22.10
2008,10,07,12,55,22.10
2008,10,07,12,56,29.50
2008,10,07,12,57,23.30
2008,10,07,12,58,31.20
2008,10,07,12,59,30.80
2008,10,07,13,00,15.20
2008,10,07,13,01,15.50
2008,10,07,13,02,11.90
2008,10,07,13,03,9.00
2008,10,07,13,04,12.00
2008,10,07,13,05,17.70
2008,10,07,13,06,19.60
2008,10,07,13,07,27.50
2008,10,07,13,08,22.70
2008,10,07,13,09,20.10
2008,10,07,13,10,24.90
2008,10,07,13,11,19.60
2008,10,07,13,12,14.80
2008,10,07,13,13,19.40
2008,10,07,13,14,18.60
2008,10,07,13,15,17.10
2008,10,07,13,16,20.70
2008,10,07,13,17,14.40
2008,10,07,13,18,21.50
2008,10,07,13,19,27.70
2008,10,07,13,20,23.80
2008,10,07,13,21,22.20
2008,10,07,13,22,27.20
2008,10,07,13,23,31.10
2008,10,07,13,24,31.60
2008,10,07,13,25,28.10
2008,10,07,13,26,21.00
2008,10,07,13,27,41.10
2008,10,07,13,28,35.20
2008,10,07,13,29,45.90
2008,10,07,13,30,36.40
2008,10,07,13,31,33.50
2008,10,07,13,32,28.50
2008,10,07,13,33,20.80
2008,10,07,13,34,33.40
2008,10,07,13,35,37.10
2008,10,07,13,36,17.80
2008,10,07,13,37,19.90
2008,10,07,13,38,26.00
2008,10,07,13,39,24.00
2008,10,07,13,40,22.50
2008,10,07,13,41,26.60
2008,10,07,13,42,28.80
2008,10,07,13,43,24.40
2008,10,07,13,44,33.70
2008,10,07,13,45,29.80
2008,10,07,13,46,26.20
2008,10,07,13,47,23.60
2008,10,07,13,48,28.00
2008,10,07,13,49,22.00
2008,10,07,13,50,19.90
2008,10,07,13,51,18.10
2008,10,07,13,52,26.10
2008,10,07,13,53,10.60
2008,10,07,13,54,17.90
2008,10,07,13,55,16.90
2008,10,07,13,56,14.70
2008,10,07,13,57,13.60
2008,10,07,13,58,13.80
2008,10,07,13,59,21.20
2008,10,07,14,00,24.30
2008,10,07,14,01,25.30
2008,10,07,14,02,26.20
2008,10,07,14,03,25.80
2008,10,07,14,04,25.60
2008,10,07,14,05,22.50
2008,10,07,14,06,18.70
2008,10,07,14,07,25.20
2008,10,07,14,08,30.40
2008,10,07,14,09,23.40
2008,10,07,14,10,23.00
2008,10,07,14,11,24.10
2008,10,07,14,12,18.20
2008,10,07,14,13,15.80
2008,10,07,14,14,19.30
2008,10,07,14,15,18.60
2008,10,07,14,16,15.80
2008,10,07,14,17,15.50
2008,10,07,14,18,13.30
2008,10,07,14,19,15.40
2008,10,07,14,20,16.10
2008,10,07,14,21,15.50
2008,10,07,14,22,15.70
2008,10,07,14,23,12.50
2008,10,07,14,24,16.70
2008,10,07,14,25,18.20
2008,10,07,14,26,17.60
2008,10,07,14,27,13.00
2008,10,07,14,28,19.20
2008,10,07,14,29,14.20
2008,10,07,14,30,19.40
2008,10,07,14,31,22.30
2008,10,07,14,32,18.80
2008,10,07,14,33,15.10
2008,10,07,14,34,23.40
2008,10,07,14,35,21.30
2008,10,07,14,36,15.70
2008,10,07,14,37,20.50
2008,10,07,14,38,17.60
2008,10,07,14,39,27.10
2008,10,07,14,40,21.70
2008,10,07,14,41,16.60
2008,10,07,14,42,12.20
2008,10,07,14,43,17.10
2008,10,07,14,44,16.20
2008,10,07,14,45,28.90
2008,10,07,14,46,21.60
2008,10,07,14,47,17.40
2008,10,07,14,48,16.60
2008,10,07,14,49,17.10
2008,10,07,14,50,10.90
2008,10,07,14,51,18.30
2008,10,07,14,52,8.00
2008,10,07,14,53,16.00
2008,10,07,14,54,8.30
2008,10,07,14,55,10.30
2008,10,07,14,56,20.20
2008,10,07,14,57,14.10
2008,10,07,14,58,14.70
2008,10,07,14,59,19.60
2008,10,07,15,00,17.90
2008,10,07,15,01,19.10
2008,10,07,15,02,11.60
2008,10,07,15,03,13.70
2008,10,07,15,04,10.10
2008,10,07,15,05,13.00
2008,10,07,15,06,18.30
2008,10,07,15,07,22.90
2008,10,07,15,08,24.90
2008,10,07,15,09,28.00
2008,10,07,15,10,20.80
2008,10,07,15,11,16.50
2008,10,07,15,12,16.80
2008,10,07,15,13,14.60
2008,10,07,15,14,14.80
2008,10,07,15,15,20.40
2008,10,07,15,16,21.80
2008,10,07,15,17,15.00
2008,10,07,15,18,12.70
2008,10,07,15,19,14.30
2008,10,07,15,20,10.60
2008,10,07,15,21,15.90
2008,10,07,15,22,16.30
2008,10,07,15,23,19.40
2008,10,07,15,24,17.20
2008,10,07,15,25,17.60
2008,10,07,15,26,12.30
2008,10,07,15,27,10.90
2008,10,07,15,28,23.90
2008,10,07,15,29,26.80
2008,10,07,15,30,26.30
2008,10,07,15,31,27.50
2008,10,07,15,32,25.20
2008,10,07,15,33,20.60
2008,10,07,15,34,25.50
2008,10,07,15,35,10.50
2008,10,07,15,36,26.90
2008,10,07,15,37,17.60
2008,10,07,15,38,19.50
2008,10,07,15,39,16.10
2008,10,07,15,40,21.30
2008,10,07,15,41,11.50
2008,10,07,15,42,15.70
2008,10,07,15,43,16.80
2008,10,07,15,44,25.70
2008,10,07,15,45,25.60
2008,10,07,15,46,15.00
2008,10,07,15,47,16.60
2008,10,07,15,48,17.30
2008,10,07,15,49,22.80
2008,10,07,15,50,20.30
2008,10,07,15,51,19.20
2008,10,07,15,52,24.80
2008,10,07,15,53,19.20
2008,10,07,15,54,21.70
2008,10,07,15,55,17.90
2008,10,07,15,56,13.00
2008,10,07,15,57,16.90
2008,10,07,15,58,29.20
2008,10,07,15,59,23.30
2008,10,07,16,00,15.00
2008,10,07,16,01,10.90
2008,10,07,16,02,16.90
2008,10,07,16,03,18.70
2008,10,07,16,04,14.50
2008,10,07,16,05,17.60
2008,10,07,16,06,18.50
2008,10,07,16,07,17.00
2008,10,07,16,08,17.60
2008,10,07,16,09,13.60
2008,10,07,16,10,15.80
2008,10,07,16,11,17.90
2008,10,07,16,12,13.50
2008,10,07,16,13,19.10
2008,10,07,16,14,12.20
2008,10,07,16,15,11.10
2008,10,07,16,16,8.10
2008,10,07,16,17,10.90
2008,10,07,16,18,12.00
2008,10,07,16,19,10.60
2008,10,07,16,20,21.30
2008,10,07,16,21,19.80
2008,10,07,16,22,25.50
2008,10,07,16,23,18.70
2008,10,07,16,24,20.40
2008,10,07,16,25,20.30
2008,10,07,16,26,20.20
2008,10,07,16,27,23.00
2008,10,07,16,28,26.80
2008,10,07,16,29,31.40
2008,10,07,16,30,24.80
2008,10,07,16,31,19.20
2008,10,07,16,32,18.40
2008,10,07,16,33,19.80
2008,10,07,16,34,18.60
2008,10,07,16,35,12.80
2008,10,07,16,36,10.80
2008,10,07,16,37,10.60
2008,10,07,16,38,18.80
2008,10,07,16,39,15.50
2008,10,07,16,40,28.50
2008,10,07,16,41,26.60
2008,10,07,16,42,24.40
2008,10,07,16,43,19.10
2008,10,07,16,44,28.60
2008,10,07,16,45,29.40
2008,10,07,16,46,29.00
2008,10,07,16,47,28.50
2008,10,07,16,48,30.40
2008,10,07,16,49,19.50
2008,10,07,16,50,15.60
2008,10,07,16,51,17.70
2008,10,07,16,52,23.10
2008,10,07,16,53,24.50
2008,10,07,16,54,17.90
2008,10,07,16,55,15.20
2008,10,07,16,56,15.90
2008,10,07,16,57,16.90
2008,10,07,16,58,27.00
2008,10,07,16,59,15.90
2008,10,07,17,00,18.70
2008,10,07,17,01,21.40
2008,10,07,17,02,19.50
2008,10,07,17,03,19.90
2008,10,07,17,04,15.00
2008,10,07,17,05,21.60
2008,10,07,17,06,22.90
2008,10,07,17,07,15.50
2008,10,07,17,08,13.80
2008,10,07,17,09,15.30
2008,10,07,17,10,23.00
2008,10,07,17,11,18.90
2008,10,07,17,12,19.10
2008,10,07,17,13,23.10
2008,10,07,17,14,25.30
2008,10,07,17,15,16.40
2008,10,07,17,16,14.50
2008,10,07,17,17,16.30
2008,10,07,17,18,19.00
2008,10,07,17,19,15.60